Location: Cormont
(50.5693°N, 1.7416°E)
Time: 13:47:42
(UTC+00:00)

STARLINK-77 - Pass Details

Date: 21 October 2019
Orbit: 548 x 551 km, 53.0° (Epoch: 19 November)

Event Time Altitude Azimuth Distance (km) Brightness Sun altitude
Rises 17:42:57 0° 268° (W) 2,716 9.6 -9.1°
Reaches altitude 10° 17:45:12 10° 272° (W) 1,823 7.9 -9.5°
Maximum altitude 17:49:18 63° 354° (N) 618 3.9 -10.1°
Enters shadow 17:52:42 15° 74° (ENE) 1,544 5.3 -10.7°
